Location: Prague
(50.0830°N, 14.4670°E)
Time: 10:44:51
(UTC+01:00)

Oscar 11 - Pass Details

Date: 08 December 2021
Orbit: 611 x 625 km, 97.6° (Epoch: 23 January)

Event Time Altitude Azimuth Distance (km) Brightness Sun altitude
Rises 05:25:39 0° 15° (NNE) 2,917 10.6 -21.7°
Reaches altitude 10° 05:27:52 10° 18° (NNE) 2,004 9.7 -21.3°
Maximum altitude 05:32:13 70° 102° (ESE) 666 7.3 -20.6°
Drops below altitude 10° 05:36:31 10° 186° (S) 1,979 9.7 -20.0°
Sets 05:38:42 0° 189° (S) 2,878 10.5 -19.6°
